TSURU

Last updated on Wed Jul 06 2022 00:02:05 GMT+0000 (Coordinated Universal Time)

1 47927U 98067SD 22186.23768160 .09943166 12481-4 57818-3 0 9991 2 47927 51.6122 204.9020 0003897 301.8435 58.2213 16.41755456 74664

Satellite not in orbit

TSURU